Location: Buttermere
(51.3333°N, 1.5167°W)
Time: 17:28:47
(UTC+00:00)

DMSP B5D2-2 - Pass Details

Date: 18 September 2020
Orbit: 790 x 806 km, 98.3° (Epoch: 30 October)

Event Time Altitude Azimuth Distance (km) Brightness Sun altitude
Rises 20:18:22 0° 13° (NNE) 3,335 7.5 -19.6°
Reaches altitude 10° 20:20:43 10° 13° (NNE) 2,400 6.8 -19.9°
Maximum altitude 20:26:02 80° 287° (WNW) 824 4.2 -20.6°
Drops below altitude 10° 20:31:18 10° 201° (SSW) 2,382 6.4 -21.3°
Sets 20:33:38 0° 201° (SSW) 3,307 7.2 -21.6°
